Regional Weather Roundup
Issued by NWS

Home | Current Version | Previous Version | Graphics & Text | Print | Product List | Glossary On
Versions: 1 2 3 4 5 6 7 8 9 10 11 12 13 14 15 16 17 18 19 20 21 22 23 24 25 26 27 28 29 30 31 32 33 34 35 36 37 38 39 40 41 42 43 44 45 46 47 48 49 50
317
ASUS43 KTOP 210508
RWRKS

WEATHER ROUNDUP FOR KANSAS
NATIONAL WEATHER SERVICE GOODLAND KS
1200 AM CDT MON AUG 21 2017

NOTE:  "FAIR" INDICATES FEW OR NO CLOUDS BELOW 12,000 FEET WITH NO
SIGNIFICANT WEATHER AND/OR OBSTRUCTIONS TO VISIBILITY.

KSZ001>006-013>018-027>032-041>047-210600-
NORTHWEST KANSAS

CITY           SKY/WX    TMP DP  RH WIND       PRES   REMARKS
GOODLAND       MOCLDY    70  64  81 S8        30.02S
HAYS           PTCLDY    79  67  66 S12       29.98R
HILL CITY      MOCLDY    80  64  58 S7        29.97R
RUSSELL        PTCLDY    82  68  62 S15       29.97R
$$

KSZ061>065-074>080-084>089-210600-
SOUTHWEST KANSAS

CITY           SKY/WX    TMP DP  RH WIND       PRES   REMARKS
DODGE CITY     MOCLDY    80  62  54 S14       30.03R
ELKHART          N/A     72  61  68 S10         N/A
GARDEN CITY    CLOUDY    76  64  66 S10       30.02R
GREAT BEND     PTCLDY    80  70  71 S15       30.00R
LIBERAL        PTCLDY    76  65  68 S15       30.06R
PRATT          PTCLDY    81  66  60 S18       30.04R
$$

KSZ066>073-081>083-090>101-210600-
SOUTHEAST KANSAS

CITY           SKY/WX    TMP DP  RH WIND       PRES   REMARKS
CHANUTE        PTCLDY    79  75  87 SE8       30.06R
COFFEYVILLE    CLEAR     81  75  82 S9        30.04S
HUTCHINSON     CLOUDY    82  67  60 S12       30.01R
MEDICINE LODGE   N/A     79  64  60 S12       30.03R
NEWTON         CLOUDY    79  71  76 S10       30.03R
PARSONS        CLEAR     81  74  79 SE5       30.06S
WICHITA INTL   CLOUDY    82  72  71 S12       30.02R
WICHITA JABRA  MOCLDY    80  73  79 S10       30.03R
WICHITA MCCONL CLOUDY    81  71  70 S10       30.03R
WINFIELD       CLOUDY    81  73  76 S9        30.05R
$$

KSZ007>012-019>026-033>040-048>060-102>105-210600-
NORTHEAST KANSAS

CITY           SKY/WX    TMP DP  RH WIND       PRES   REMARKS
CONCORDIA      PTCLDY    83  68  60 S14       29.96R
EMPORIA        PTCLDY    78  72  81 S12       30.03R
LAWRENCE       CLOUDY    78  68  71 SE9       30.03R
MANHATTAN      CLOUDY    84  73  69 S13       29.99R
MARYSVILLE     PTCLDY    81  73  78 SE9       29.99R
OLATHE IND     PTCLDY    75  64  68 S9        30.05S
OLATHE EXE     PTCLDY    74  65  73 S7        30.05R
SALINA         CLOUDY    87  66  49 S17G28    29.97R
TOPEKA BILLARD CLOUDY    81  78  91 SE12      30.02R
TOPEKA FORBES  CLOUDY    82  76  81 SE10      30.03R
$$




USA.gov is the U.S. government's official web portal to all federal, state and local government web resources and services.